| time (UTC) | temp C | wind direction | speed KPH | gust KPH | rain 1hr cm | rain 24hr cm | rain mn cm | humidity % | barometer mb |
| 20260507181809 | -17 | 0.0 | 1.6 | 0.00 | 0.00 | 0.00 | 1005.5 | ||
| 20260507180739 | -17 | 0.0 | 1.6 | 0.00 | 0.00 | 0.00 | 1005.4 | ||
| 20260507175710 | -17 | 0.0 | 1.6 | 0.00 | 0.00 | 0.00 | 1005.5 | ||
| 20260507174640 | -17 | 0.0 | 1.6 | 0.00 | 0.00 | 0.00 | 1005.2 | ||
| 20260507173610 | -17 | 0.0 | 1.6 | 0.00 | 0.00 | 0.00 | 1005.4 | ||
| 20260507172540 | -17 | 0.0 | 4.8 | 0.00 | 0.00 | 0.00 | 1005.2 | ||
| 20260507171509 | -17 | 0.0 | 6.4 | 0.00 | 0.00 | 0.00 | 1005.4 | ||
| 20260507170438 | -17 | 1.6 | 6.4 | 0.00 | 0.00 | 0.00 | 1005.6 | ||
| 20260507165407 | -17 | 0.0 | 9.7 | 0.00 | 0.00 | 0.00 | 1005.6 | ||
| 20260507164330 | -17 | 1.6 | 4.8 | 0.00 | 0.00 | 0.00 | 1005.5 | ||
| 20260507163301 | -17 | 3.2 | 4.8 | 0.00 | 0.00 | 0.00 | 1005.6 | ||
| 20260507162231 | -17 | 1.6 | 6.4 | 0.00 | 0.00 | 0.00 | 1005.5 | ||
| 20260507161201 | -17 | 4.8 | 9.7 | 0.00 | 0.00 | 0.00 | 1005.5 | ||
| 20260507160130 | -17 | 3.2 | 11.3 | 0.00 | 0.00 | 0.00 | 1005.4 | ||
| 20260507155048 | -17 | 4.8 | 8.0 | 0.00 | 0.00 | 0.00 | 1005.3 | ||
| 20260507154019 | -17 | 3.2 | 9.7 | 0.00 | 0.00 | 0.00 | 1005.4 | ||
| 20260507152949 | -17 | 0.0 | 11.3 | 0.00 | 0.00 | 0.00 | 1005.5 | ||
| 20260507151920 | -17 | 6.4 | 11.3 | 0.00 | 0.00 | 0.00 | 1005.3 | ||
| 20260507150850 | -17 | 3.2 | 9.7 | 0.00 | 0.00 | 0.00 | 1005.4 | ||
| 20260507145820 | -17 | 3.2 | 11.3 | 0.00 | 0.00 | 0.00 | 1005.5 | ||
| 20260507144749 | -17 | 3.2 | 14.5 | 0.00 | 0.00 | 0.00 | 1005.5 | ||
| 20260507143718 | -17 | 6.4 | 12.9 | 0.00 | 0.00 | 0.00 | 1005.4 | ||
| 20260507142648 | -17 | 3.2 | 9.7 | 0.00 | 0.00 | 0.00 | 1005.5 | ||
| 20260507141617 | -17 | 3.2 | 14.5 | 0.00 | 0.00 | 0.00 | 1005.6 | ||
| 20260507140547 | -17 | 4.8 | 14.5 | 0.00 | 0.00 | 0.00 | 1005.5 | ||
| 20260507135517 | -17 | 6.4 | 12.9 | 0.00 | 0.00 | 0.00 | 1005.6 | ||
| 20260507134445 | -17 | 6.4 | 11.3 | 0.00 | 0.00 | 0.00 | 1005.7 | ||
| 20260507133414 | -17 | 6.4 | 12.9 | 0.00 | 0.00 | 0.00 | 1005.8 | ||
| 20260507132342 | -17 | 11.3 | 16.1 | 0.00 | 0.00 | 0.00 | 1006.0 | ||
| 20260507131312 | -17 | 6.4 | 12.9 | 0.00 | 0.00 | 0.00 | 1006.1 | ||
| 20260507130241 | -17 | 1.6 | 9.7 | 0.00 | 0.00 | 0.00 | 1006.0 | ||
| 20260507125210 | -17 | 6.4 | 11.3 | 0.00 | 0.00 | 0.00 | 1006.0 | ||
| 20260507124139 | -17 | 6.4 | 11.3 | 0.00 | 0.00 | 0.00 | 1005.9 | ||
| 20260507123109 | -17 | 3.2 | 11.3 | 0.00 | 0.00 | 0.00 | 1005.8 | ||
| 20260507122041 | -17 | 6.4 | 9.7 | 0.00 | 0.00 | 0.00 | 1005.7 | ||
| 20260507121011 | -17 | 6.4 | 11.3 | 0.00 | 0.00 | 0.00 | 1005.6 | ||
| 20260507115941 | -17 | 6.4 | 9.7 | 0.00 | 0.00 | 0.00 | 1005.5 | ||
| 20260507114911 | -17 | 3.2 | 8.0 | 0.00 | 0.00 | 0.00 | 1005.6 | ||
| 20260507113839 | -17 | 1.6 | 12.9 | 0.00 | 0.00 | 0.00 | 1005.6 | ||
| 20260507112809 | -17 | 3.2 | 9.7 | 0.00 | 0.00 | 0.00 | 1005.6 | ||
| 20260507111739 | -17 | 4.8 | 9.7 | 0.00 | 0.00 | 0.00 | 1005.9 | ||
| 20260507110709 | -17 | 3.2 | 11.3 | 0.00 | 0.00 | 0.00 | 1006.0 | ||
| 20260507105637 | -17 | 1.6 | 6.4 | 0.00 | 0.00 | 0.00 | 1005.9 | ||
| 20260507104605 | -17 | 1.6 | 8.0 | 0.00 | 0.00 | 0.00 | 1006.0 | ||
| 20260507103529 | -17 | 6.4 | 9.7 | 0.00 | 0.00 | 0.00 | 1005.9 | ||
| 20260507102452 | -17 | 1.6 | 6.4 | 0.00 | 0.00 | 0.00 | 1005.8 | ||
| 20260507101421 | -17 | 1.6 | 6.4 | 0.00 | 0.00 | 0.00 | 1005.9 | ||
| 20260507100351 | -17 | 1.6 | 6.4 | 0.00 | 0.00 | 0.00 | 1005.8 | ||
| 20260507095319 | -17 | 3.2 | 9.7 | 0.00 | 0.00 | 0.00 | 1005.9 | ||
| 20260507094246 | -17 | 8.0 | 12.9 | 0.00 | 0.00 | 0.00 | 1005.8 | ||
| 20260507093216 | -17 | 3.2 | 8.0 | 0.00 | 0.00 | 0.00 | 1005.8 | ||
| 20260507092147 | -17 | 4.8 | 16.1 | 0.00 | 0.00 | 0.00 | 1005.8 | ||
| 20260507091117 | -17 | 3.2 | 9.7 | 0.00 | 0.00 | 0.00 | 1005.6 | ||
| 20260507090047 | -17 | 6.4 | 14.5 | 0.00 | 0.00 | 0.00 | 1005.4 | ||
| 20260507085018 | -17 | 6.4 | 9.7 | 0.00 | 0.00 | 0.00 | 1005.3 | ||
| 20260507083947 | -17 | 0.0 | 9.7 | 0.00 | 0.00 | 0.00 | 1005.1 | ||
| 20260507082916 | -17 | 3.2 | 12.9 | 0.00 | 0.00 | 0.00 | 1005.0 | ||
| 20260507081847 | -17 | 6.4 | 14.5 | 0.00 | 0.00 | 0.00 | 1005.0 | ||
| 20260507080818 | -17 | 4.8 | 12.9 | 0.00 | 0.00 | 0.00 | 1004.9 | ||
| 20260507075748 | -17 | 4.8 | 9.7 | 0.00 | 0.00 | 0.00 | 1004.9 | ||
| 20260507074718 | -17 | 0.0 | 4.8 | 0.00 | 0.00 | 0.00 | 1005.0 | ||
| 20260507073649 | -17 | 4.8 | 8.0 | 0.00 | 0.00 | 0.00 | 1004.9 | ||
| 20260507072619 | -17 | 3.2 | 4.8 | 0.00 | 0.00 | 0.00 | 1004.9 | ||
| 20260507071550 | -17 | 0.0 | 1.6 | 0.00 | 0.00 | 0.00 | 1004.9 | ||
| 20260507070521 | -17 | 0.0 | 0.0 | 0.00 | 0.00 | 0.00 | 1004.7 | ||
| 20260507065040 | -17 | 0.0 | 0.0 | 0.00 | 0.00 | 0.00 | 1004.6 | ||
| 20260507064011 | -17 | 0.0 | 1.6 | 0.00 | 0.00 | 0.00 | 1004.6 | ||
| 20260507062942 | -17 | 0.0 | 1.6 | 0.00 | 0.00 | 0.00 | 1004.5 | ||
| 20260507061913 | -17 | 0.0 | 0.0 | 0.00 | 0.00 | 0.00 | 1004.4 | ||
| 20260507060639 | -17 | 0.0 | 0.0 | 0.00 | 0.00 | 0.00 | 1004.2 | ||
| 20260507055400 | -17 | 0.0 | 0.0 | 0.00 | 0.00 | 0.00 | 1004.1 | ||
| 20260507054332 | -17 | 0.0 | 0.0 | 0.00 | 0.00 | 0.00 | 1004.0 | ||
| 20260507052337 | -17 | 0.0 | 0.0 | 0.00 | 0.00 | 0.00 | 1004.0 | ||
| 20260507051309 | -17 | 0.0 | 0.0 | 0.00 | 0.00 | 0.00 | 1003.9 | ||
| 20260507050240 | -17 | 0.0 | 0.0 | 0.00 | 0.00 | 0.00 | 1003.7 | ||
| 20260507044902 | -17 | 0.0 | 0.0 | 0.00 | 0.00 | 0.00 | 1003.6 | ||
| 20260507043628 | -17 | 0.0 | 0.0 | 0.00 | 0.00 | 0.00 | 1003.4 | ||
| 20260507042559 | -17 | 0.0 | 0.0 | 0.00 | 0.00 | 0.00 | 1003.5 | ||
| 20260507041528 | -17 | 0.0 | 0.0 | 0.00 | 0.00 | 0.00 | 1003.5 | ||
| 20260507040500 | -17 | 0.0 | 0.0 | 0.00 | 0.00 | 0.00 | 1003.5 | ||
| 20260507035430 | -17 | 0.0 | 1.6 | 0.00 | 0.00 | 0.00 | 1003.5 | ||
| 20260507034400 | -17 | 0.0 | 0.0 | 0.00 | 0.00 | 0.00 | 1003.3 | ||
| 20260507033332 | -17 | 0.0 | 0.0 | 0.00 | 0.00 | 0.00 | 1003.3 | ||
| 20260507032305 | -17 | 0.0 | 0.0 | 0.00 | 0.00 | 0.00 | 1003.1 | ||
| 20260507031232 | -17 | 0.0 | 1.6 | 0.00 | 0.00 | 0.00 | 1003.1 | ||
| 20260507030203 | -17 | 0.0 | 0.0 | 0.00 | 0.00 | 0.00 | 1003.3 | ||
| 20260507024928 | -17 | 0.0 | 0.0 | 0.00 | 0.00 | 0.00 | 1003.1 | ||
| 20260507023858 | -17 | 0.0 | 0.0 | 0.00 | 0.00 | 0.00 | 1003.1 | ||
| 20260507022515 | -17 | 0.0 | 0.0 | 0.00 | 0.00 | 0.00 | 1003.0 | ||
| 20260507021138 | -17 | 0.0 | 1.6 | 0.00 | 0.00 | 0.00 | 1003.0 | ||
| 20260507020109 | -17 | 0.0 | 0.0 | 0.00 | 0.00 | 0.00 | 1002.8 | ||
| 20260507015041 | -17 | 0.0 | 3.2 | 0.00 | 0.00 | 0.00 | 1002.8 | ||
| 20260507014013 | -17 | 1.6 | 3.2 | 0.00 | 0.00 | 0.00 | 1002.8 | ||
| 20260507012945 | -17 | 1.6 | 3.2 | 0.00 | 0.00 | 0.00 | 1002.6 | ||
| 20260507011917 | -17 | 0.0 | 0.0 | 0.00 | 0.00 | 0.00 | 1002.5 | ||
| 20260507010436 | -17 | 0.0 | 0.0 | 0.00 | 0.00 | 0.00 | 1002.7 | ||
| 20260507005306 | -17 | 0.0 | 1.6 | 0.00 | 0.00 | 0.00 | 1002.7 | ||
| 20260507004237 | -17 | 0.0 | 0.0 | 0.00 | 0.00 | 0.00 | 1002.7 | ||
| 20260507003209 | -17 | 0.0 | 0.0 | 0.00 | 0.00 | 0.00 | 1002.8 | ||
| 20260507001625 | -17 | 0.0 | 0.0 | 0.00 | 0.00 | 0.00 | 1002.7 | ||
| 20260507000556 | -17 | 0.0 | 0.0 | 0.00 | 0.00 | 0.00 | 1002.6 | ||
| 20260506235527 | -17 | 0.0 | 1.6 | 0.00 | 0.00 | 0.00 | 1002.5 | ||
| 20260506234458 | -17 | 0.0 | 0.0 | 0.00 | 0.00 | 0.00 | 1002.7 | ||
| 20260506233429 | -17 | 0.0 | 1.6 | 0.00 | 0.00 | 0.00 | 1002.7 | ||
| 20260506232400 | -17 | 0.0 | 0.0 | 0.00 | 0.00 | 0.00 | 1002.8 | ||
| 20260506230406 | -17 | 0.0 | 0.0 | 0.00 | 0.00 | 0.00 | 1002.8 | ||
| 20260506224822 | -17 | 0.0 | 1.6 | 0.00 | 0.00 | 0.00 | 1003.0 | ||
| 20260506223754 | -17 | 0.0 | 0.0 | 0.00 | 0.00 | 0.00 | 1002.9 | ||
| 20260506222623 | -17 | 0.0 | 1.6 | 0.00 | 0.00 | 0.00 | 1002.8 | ||
| 20260506221349 | -17 | 0.0 | 0.0 | 0.00 | 0.00 | 0.00 | 1002.8 | ||
| 20260506220217 | -17 | 0.0 | 1.6 | 0.00 | 0.00 | 0.00 | 1002.7 | ||
| 20260506215146 | -17 | 0.0 | 1.6 | 0.00 | 0.00 | 0.00 | 1002.7 | ||
| 20260506213604 | -17 | 0.0 | 3.2 | 0.00 | 0.00 | 0.00 | 1002.6 | ||
| 20260506212535 | -17 | 1.6 | 4.8 | 0.00 | 0.00 | 0.00 | 1002.7 | ||
| 20260506211506 | -17 | 0.0 | 1.6 | 0.00 | 0.00 | 0.00 | 1002.8 | ||
| 20260506210437 | -17 | 0.0 | 1.6 | 0.00 | 0.00 | 0.00 | 1002.7 | ||
| 20260506205313 | -17 | 0.0 | 1.6 | 0.00 | 0.00 | 0.00 | 1002.7 | ||
| 20260506204241 | -17 | 1.6 | 6.4 | 0.00 | 0.00 | 0.00 | 1002.6 | ||
| 20260506203210 | -17 | 3.2 | 6.4 | 0.00 | 0.00 | 0.00 | 1002.5 | ||
| 20260506202139 | -17 | 3.2 | 12.9 | 0.00 | 0.00 | 0.00 | 1002.4 | ||
| 20260506201110 | -17 | 6.4 | 17.7 | 0.00 | 0.00 | 0.00 | 1002.4 | ||
| 20260506200039 | -17 | 6.4 | 17.7 | 0.00 | 0.00 | 0.00 | 1002.1 | ||
| 20260506195008 | -17 | 4.8 | 14.5 | 0.00 | 0.00 | 0.00 | 1002.2 | ||
| 20260506193936 | -17 | 3.2 | 19.3 | 0.00 | 0.00 | 0.00 | 1002.1 | ||
| 20260506192902 | -17 | 6.4 | 11.3 | 0.00 | 0.00 | 0.00 | 1001.9 | ||
| 20260506191831 | -17 | 6.4 | 9.7 | 0.00 | 0.00 | 0.00 | 1001.6 | ||
| 20260506190800 | -17 | 3.2 | 11.3 | 0.00 | 0.00 | 0.00 | 1001.4 | ||
| 20260506185730 | -17 | 4.8 | 16.1 | 0.00 | 0.00 | 0.00 | 1001.2 | ||
| 20260506184701 | -17 | 6.4 | 14.5 | 0.00 | 0.00 | 0.00 | 1001.1 | ||
| 20260506183632 | -17 | 4.8 | 12.9 | 0.00 | 0.00 | 0.00 | 1000.9 |